Location: Pedimozza
(42.0500°N, 9.3500°E)
Time: 17:11:57
(UTC+00:00)

ARGOS - Pass Details

Date: 19 August 2019
Orbit: 821 x 834 km, 98.5° (Epoch: 16 October)

Event Time Altitude Azimuth Distance (km) Brightness Sun altitude
Exits shadow 20:06:10 - 189° (S) 2,660 5.5 -18.6°
Reaches altitude 10° 20:06:50 10° 192° (SSW) 2,415 5.3 -18.7°
Maximum altitude 20:11:52 41° 262° (W) 1,173 4.2 -19.4°
Drops below altitude 10° 20:16:55 10° 332° (NNW) 2,426 6.6 -20.1°
Sets 20:19:25 0° 340° (NNW) 3,363 7.4 -20.5°
